Leadville, CO

1:40 PM MDT on September 24, 2017 (GMT -0600)
Lake County

Weather History for KLXV - February, 2012

Change the Weather History Date:

Sunday, February 5, 2012

  Actual Average Record
Temperature  
Mean Temperature 8 °F -  
Max Temperature 23 °F 30 °F 42 °F (1984)
Min Temperature -8 °F 4 °F -20 °F (1979)
Degree Days  
Heating Degree Days 57 48  
Month to date heating degree days 255 240  
Since 1 July heating degree days 6319 6637  
Cooling Degree Days 0 0  
Month to date cooling degree days 0 0  
Year to date cooling degree days 0 0  
Moisture  
Dew Point 3 °F    
Average Humidity 69    
Maximum Humidity 96    
Minimum Humidity 41    
Precipitation  
Precipitation T in 0.02 in 0.31 in (2011)
Month to date precipitation 0.13 0.11  
Year to date precipitation 1.20 0.73  
Sea Level Pressure  
Sea Level Pressure 30.23 in    
Wind  
Wind Speed 4 mph (SE)    
Max Wind Speed 16 mph    
Max Gust Speed 20 mph    
Visibility 8 miles    
Events Fog , Snow    
T = Trace of Precipitation, MM = Missing Value Source: NWS Daily Summary

Daily Weather History Graph

Daily Weather History Graph

Search for Another Location

Airport or City:

Trip Planner

Search our weather history database for the weather conditions in past years. The results will help you decide how hot, cold, wet, or windy it might be!

Date:

Astronomy

Feb. 05, 2012 Rise Set
Actual Time 7:08 AM MST 5:30 PM MST
Civil Twilight 6:40 AM MST 5:58 PM MST
Nautical Twilight 6:08 AM MST 6:30 PM MST
Astronomical Twilight 5:37 AM MST 7:01 PM MST
Moon 3:32 PM MST (2/5) 5:21 AM MST (2/5)
Length of Visible Light 11h 17m
Length of Day
10h 21m
Waxing Gibbous, 95% of the Moon is Illuminated
Feb 5
Waxing Gibbous
Feb 7
Full
Feb 14
Last Quarter
Feb 21
New
Feb 29
First Quarter

Hourly Weather History & Observations

Time (MST) Temp. Windchill Dew Point Humidity Pressure Visibility Wind Dir Wind Speed Gust Speed Precip Events Conditions
12:03 AM 8.6 °F - 5.0 °F 85% 30.26 in 7.0 mi Calm Calm - N/A   Overcast
12:53 AM 5.0 °F - 1.9 °F 87% 30.35 in 7.0 mi Calm Calm - 0.00 in   Overcast
1:53 AM 6.1 °F -0.9 °F 3.0 °F 87% 30.32 in 8.0 mi East 3.5 mph - 0.00 in   Overcast
2:53 AM 5.0 °F -4.1 °F 1.9 °F 87% 30.31 in 10.0 mi East 4.6 mph - N/A   Overcast
3:53 AM 1.9 °F -5.6 °F -0.9 °F 88% 30.32 in 10.0 mi East 3.5 mph - N/A   Overcast
4:22 AM 1.4 °F -6.2 °F -2.2 °F 85% 30.22 in 10.0 mi East 3.5 mph - N/A   Overcast
4:53 AM 1.0 °F -6.7 °F -2.0 °F 87% 30.34 in 9.0 mi East 3.5 mph - N/A   Overcast
5:29 AM -0.4 °F -8.3 °F -2.2 °F 92% 30.22 in 1.8 mi East 3.5 mph - N/A   Overcast
5:53 AM -0.9 °F -8.9 °F -2.9 °F 91% 30.38 in 1.0 mi ENE 3.5 mph - N/A   Mist
6:03 AM -2.2 °F -10.4 °F -4.0 °F 92% 30.22 in 0.5 mi ENE 3.5 mph - N/A Fog Light Freezing Fog
6:23 AM -4.0 °F -12.4 °F -5.8 °F 92% 30.22 in 0.5 mi East 3.5 mph - N/A Fog Light Freezing Fog
6:34 AM -5.8 °F - -7.6 °F 92% 30.22 in 2.0 mi Calm Calm - N/A   Overcast
6:42 AM -7.6 °F - -9.4 °F 92% 30.22 in 5.0 mi Calm Calm - N/A   Mostly Cloudy
6:53 AM -7.1 °F - -11.9 °F 79% 30.46 in 10.0 mi Calm Calm - N/A   Mostly Cloudy
7:01 AM -7.6 °F - -9.4 °F 92% 30.22 in 8.0 mi Calm Calm - N/A   Partly Cloudy
7:53 AM -4.0 °F -12.4 °F -7.1 °F 87% 30.45 in 10.0 mi East 3.5 mph - N/A   Clear
8:53 AM 3.0 °F - -2.0 °F 80% 30.41 in 10.0 mi Calm Calm - N/A   Clear
9:53 AM 12.0 °F - 1.9 °F 64% 30.32 in 10.0 mi Calm Calm - N/A   Clear
10:53 AM 18.0 °F - 1.9 °F 50% 30.27 in 10.0 mi Calm Calm - N/A   Clear
11:53 AM 18.0 °F 7.7 °F 5.0 °F 57% 30.22 in 10.0 mi SSW 8.1 mph - N/A   Clear
12:53 PM 21.0 °F 10.6 °F 5.0 °F 50% 30.20 in 10.0 mi SSW 9.2 mph - N/A   Clear
1:53 PM 21.9 °F 11.7 °F 1.9 °F 42% 30.15 in 10.0 mi SSW 9.2 mph - N/A   Clear
2:53 PM 21.0 °F 8.6 °F 6.1 °F 53% 30.16 in 10.0 mi SSW 12.7 mph - N/A   Mostly Cloudy
3:53 PM 19.9 °F 6.7 °F 8.1 °F 60% 30.19 in 10.0 mi SSW 13.8 mph - N/A   Overcast
4:53 PM 18.0 °F 4.8 °F 14.0 °F 84% 30.21 in 3.0 mi SW 12.7 mph - 0.00 in Snow Light Snow
5:23 PM 17.6 °F 4.3 °F 12.2 °F 79% 30.11 in 9.0 mi SSW 12.7 mph - 0.00 in   Overcast
5:53 PM 14.0 °F 6.5 °F 12.0 °F 92% 30.26 in 10.0 mi SSW 4.6 mph - 0.00 in   Scattered Clouds
6:09 PM 12.2 °F - 10.4 °F 92% 30.12 in 10.0 mi Calm Calm - N/A   Scattered Clouds
6:23 PM 14.0 °F - 10.4 °F 86% 30.12 in 10.0 mi Calm Calm - N/A   Mostly Cloudy
6:43 PM 12.2 °F - 10.4 °F 92% 30.12 in 7.0 mi Calm Calm - N/A   Mostly Cloudy
6:53 PM 12.0 °F - 10.0 °F 92% 30.32 in 9.0 mi Calm Calm - N/A   Partly Cloudy
7:02 PM 12.2 °F 6.1 °F 8.6 °F 85% 30.12 in 9.0 mi ESE 3.5 mph - N/A   Mostly Cloudy
7:53 PM 12.9 °F - 10.0 °F 88% 30.30 in 10.0 mi Calm Calm - N/A   Overcast
8:19 PM 8.6 °F -2.6 °F 6.8 °F 92% 30.13 in 10.0 mi East 6.9 mph - N/A   Mostly Cloudy
8:31 PM 8.6 °F -1.3 °F 6.8 °F 92% 30.12 in 10.0 mi East 5.8 mph - N/A   Scattered Clouds
8:53 PM 8.1 °F -3.2 °F 5.0 °F 87% 30.28 in 10.0 mi East 6.9 mph - N/A   Scattered Clouds
9:04 PM 8.6 °F -1.3 °F 6.8 °F 92% 30.12 in 10.0 mi ESE 5.8 mph - N/A   Mostly Cloudy
9:41 PM 10.4 °F 2.2 °F 6.8 °F 85% 30.12 in 10.0 mi ESE 4.6 mph - N/A   Overcast
9:53 PM 12.0 °F - 8.1 °F 84% 30.19 in 10.0 mi Calm Calm - N/A   Overcast
10:53 PM 10.0 °F - 7.0 °F 87% 30.15 in 4.0 mi Calm Calm - 0.00 in Snow Light Snow
11:53 PM 10.9 °F - 8.1 °F 88% 30.12 in 6.0 mi Calm Calm - 0.00 in   Overcast